Location: Highridge
(54.0333°N, 114.1333°W)
Time: 23:56:20
(UTC+00:00)

ESTCUBE 1 - Visible Passes

Search period start: 15 September 2024 00:00
Search period end: 25 September 2024 00:00
Orbit: 633 x 643 km, 97.8° (Epoch: 15 September)

Date Brightness Start Highest point End Pass type
(mag) Time Alt. Az. Time Alt. Az. Time Alt. Az.
15 Sep ? 03:06:02 12° E 03:08:02 16° NE 03:10:46 10° NNE visible
15 Sep ? 04:43:35 77° SSE 04:43:54 86° ENE 04:48:23 10° NNW visible
15 Sep ? 06:21:08 15° W 06:21:08 15° W 06:23:33 10° NW visible
16 Sep ? 03:29:13 20° E 03:30:35 23° ENE 03:34:06 10° N visible
16 Sep ? 05:06:47 60° W 05:06:47 60° W 05:11:11 10° NNW visible
17 Sep ? 03:52:24 31° E 03:53:13 33° ENE 03:57:13 10° N visible
17 Sep ? 05:29:57 38° W 05:29:57 38° W 05:33:50 10° NNW visible
18 Sep ? 02:39:32 10° ENE 02:40:22 10° NE 02:41:10 10° NE visible
18 Sep ? 04:15:34 49° E 04:15:52 50° ENE 04:20:12 10° N visible
18 Sep ? 05:53:07 24° W 05:53:07 24° W 05:56:19 10° NW visible
19 Sep ? 03:01:10 13° ENE 03:02:48 15° NE 03:05:19 10° NNE visible
19 Sep ? 04:38:43 78° NE 04:38:43 78° NE 04:43:05 10° NNW visible
19 Sep ? 06:16:16 16° WNW 06:16:16 16° WNW 06:18:28 10° NW visible
20 Sep ? 03:24:19 20° ENE 03:25:18 21° ENE 03:28:39 10° N visible
20 Sep ? 05:01:51 61° WNW 05:01:51 61° WNW 05:05:51 10° NNW visible
21 Sep ? 03:47:27 30° ENE 03:47:50 31° ENE 03:51:46 10° N visible
21 Sep ? 05:24:59 39° WNW 05:24:59 39° WNW 05:28:29 10° NNW visible
22 Sep ? 04:10:34 46° ENE 04:10:34 46° ENE 04:14:44 10° N visible
22 Sep ? 05:48:06 25° WNW 05:48:06 25° WNW 05:50:57 10° NW visible
23 Sep ? 02:56:07 13° ENE 02:57:23 14° NE 02:59:38 10° NNE visible
23 Sep ? 04:33:40 62° NNE 04:33:40 62° NNE 04:37:34 10° N visible
23 Sep ? 06:11:12 17° WNW 06:11:12 17° WNW 06:13:10 10° NW visible
24 Sep ? 03:19:13 19° ENE 03:19:49 20° ENE 03:23:01 10° N visible
24 Sep ? 04:56:45 54° NW 04:56:45 54° NW 05:00:18 10° NNW visible
24 Sep ? 06:34:17 11° WNW 06:34:17 11° WNW 06:34:40 10° WNW visible
